Wind_Speed
10 11 11 11 13 14 15 15 16 16 17 17 17 17 16 16 16 16 17 17 18 18 19 19 20 20 20 20 20 20 20 21 22 22 23 24 24 25 26 26 27 27 28 28 28 29 29 29 30 30 30 31 31 31 32 32 33 33 34 34 35 36 36 36 37 37 37 37 37 37 37 38 38 38 38 38 38 38 39 39 39 40 41 42 42
10 10 11 12 13 15 16 15 16 16 16 17 16 16 16 16 16 16 16 16 16 17 18 19 19 19 20 20 20 20 20 21 21 22 23 23 24 25 25 26 27 27 27 28 28 29 29 30 30 30 31 31 32 32 33 33 33 34 34 34 35 36 36 37 37 37 37 38 38 38 38 38 38 39 39 39 38 38 38 38 38 39 40 41 41
9 10 12 12 13 14 15 15 15 15 16 16 16 16 16 16 16 16 16 17 17 17 18 18 19 19 19 20 20 20 20 20 21 22 22 23 24 25 25 25 26 26 27 27 28 28 29 29 30 30 31 32 32 33 33 34 34 34 34 35 35 35 36 36 37 37 37 38 38 38 38 39 39 39 39 39 39 39 39 38 38 38 40 40 41
8 9 11 12 12 13 14 14 15 15 15 15 16 16 15 15 16 16 17 17 17 18 18 18 18 19 19 19 20 20 20 21 21 22 22 23 24 24 24 25 25 25 26 26 27 27 28 29 29 30 31 31 32 33 34 34 34 34 34 35 35 35 36 36 36 37 37 38 38 38 38 39 39 39 39 39 39 39 39 39 38 38 40 40 41
8 8 10 11 11 12 12 13 13 13 13 14 14 14 15 15 15 15 15 16 16 17 17 18 18 19 19 19 20 20 20 21 21 22 22 22 23 23 24 24 24 25 25 26 26 26 27 27 28 29 29 30 31 32 32 33 33 33 34 34 34 35 35 35 36 36 37 38 38 38 38 39 39 39 39 39 39 39 39 39 39 39 40 40 41
8 9 10 11 11 11 10 10 10 10 10 10 10 11 12 13 13 14 14 15 15 16 17 17 18 19 19 19 19 20 20 20 21 21 21 22 22 22 23 23 23 24 24 25 25 25 26 26 27 27 28 28 29 30 31 31 32 32 33 33 34 34 34 34 34 35 36 36 37 38 38 39 39 39 39 39 39 39 39 39 39 39 40 40 40
8 9 10 9 9 8 7 7 7 7 8 9 9 10 10 11 12 13 14 15 16 16 17 17 17 18 18 18 19 19 19 19 20 20 20 20 21 21 21 22 22 23 23 23 24 24 25 25 26 26 26 27 27 28 28 29 30 31 31 32 33 33 33 34 34 34 34 35 36 37 37 38 39 39 39 39 39 39 39 39 39 39 40 40 40
6 6 6 5 5 4 5 5 6 7 8 9 9 10 11 12 13 14 14 15 16 16 16 17 17 17 17 17 17 17 18 18 18 19 19 19 19 20 20 20 21 21 21 22 22 23 23 24 24 25 25 25 26 26 27 27 28 28 29 29 30 31 32 32 33 33 33 34 34 35 35 36 37 38 38 39 39 39 39 39 39 39 39 39 40
3 3 3 2 3 3 4 5 6 7 8 9 10 11 12 13 13 14 14 15 15 16 15 15 15 15 15 15 16 16 16 17 17 17 17 18 18 18 18 19 19 19 20 20 21 21 21 22 22 23 23 24 24 25 25 25 26 26 27 27 28 28 29 30 31 31 32 33 34 34 34 34 35 35 36 37 37 38 39 40 40 40 40 39 40
1 1 1 1 2 3 4 6 7 8 8 9 10 11 12 12 13 13 14 14 14 14 13 13 13 13 13 14 14 15 15 15 15 16 16 16 17 17 18 18 18 19 19 19 20 20 20 21 21 22 22 22 23 23 23 24 24 25 25 26 26 27 27 28 28 29 30 31 32 33 33 34 34 34 35 35 35 36 37 38 39 40 41 41 41
1 1 1 1 2 4 5 6 7 8 9 10 10 11 12 12 12 12 12 12 11 11 11 11 11 12 12 12 12 13 13 14 14 14 15 16 16 17 18 18 19 19 19 20 20 20 21 21 21 22 22 23 23 23 23 24 24 24 24 25 25 26 26 26 27 27 28 29 30 31 32 32 33 33 34 34 34 35 35 36 37 38 39 40 41
1 1 2 2 3 5 5 6 7 8 9 9 10 11 10 10 10 9 9 9 9 9 9 10 10 10 11 11 12 12 13 14 14 15 16 16 17 18 18 19 20 20 21 21 22 22 22 22 23 23 24 24 24 24 25 25 25 25 25 26 26 26 26 26 26 27 27 28 28 29 30 31 31 32 33 34 34 34 35 35 36 37 38 39 39
2 2 3 3 4 4 5 6 7 7 7 8 8 8 7 7 7 6 7 7 8 8 9 9 10 10 11 12 13 13 14 15 15 16 17 17 18 19 19 20 20 21 22 22 23 23 24 24 24 25 25 26 26 26 26 26 26 27 27 27 27 27 27 27 27 27 28 28 29 29 29 29 29 30 31 32 33 34 34 35 36 37 38 38 40
2 2 3 3 4 4 4 5 5 6 6 6 5 6 6 6 6 7 7 8 9 9 10 11 11 12 13 13 14 14 15 15 16 16 17 18 19 19 20 21 21 22 22 23 24 24 25 25 25 26 26 27 27 27 27 27 27 27 27 28 28 28 28 28 28 29 29 30 30 30 30 29 29 29 30 30 32 33 34 35 36 36 37 39 40
3 3 3 4 4 4 4 5 5 5 5 6 6 7 7 7 8 8 9 10 10 11 11 12 12 12 13 13 14 14 15 16 16 17 18 18 19 20 21 22 22 23 23 24 24 25 26 26 26 27 27 27 27 27 27 27 27 27 27 27 27 27 27 28 29 29 30 30 31 31 31 31 31 31 31 30 31 31 33 35 35 36 37 37 36
4 4 4 5 5 5 5 5 6 6 6 7 7 7 8 9 9 10 10 10 10 11 11 11 12 13 14 14 15 16 16 17 18 18 19 20 20 21 22 23 23 24 25 25 26 27 27 27 27 28 28 28 27 27 26 26 26 25 26 26 27 27 28 28 29 29 30 31 31 32 32 32 32 33 32 32 32 32 32 33 34 36 36 35 35
5 6 6 6 7 7 7 7 7 7 8 8 8 8 9 10 10 10 10 10 11 11 12 12 13 14 15 16 16 17 18 19 19 20 21 21 22 23 24 24 25 25 26 26 27 28 28 29 28 28 28 27 27 26 26 26 27 27 27 28 28 28 28 29 29 29 30 31 32 32 32 33 34 34 33 34 34 34 34 34 34 36 36 36 38
7 7 7 8 8 8 8 8 9 9 9 9 9 10 10 10 10 11 11 11 11 12 13 13 14 15 15 16 17 17 18 19 20 20 21 22 23 23 24 25 26 26 27 27 27 28 28 28 28 27 27 26 27 27 28 29 29 30 30 30 30 30 29 30 30 30 30 32 32 32 33 34 35 35 35 36 37 36 36 35 36 36 35 36 37
10 9 9 10 10 10 10 10 10 10 10 10 10 10 10 10 10 10 10 11 12 13 13 14 14 15 15 16 17 17 18 19 20 20 21 22 23 23 24 25 26 26 27 27 28 28 28 28 27 27 26 27 28 30 31 31 32 32 32 33 33 32 32 32 32 32 32 33 33 33 34 35 36 36 37 37 38 38 37 37 39 38 37 38 36
12 11 11 11 11 11 11 11 11 11 11 10 10 10 9 9 9 10 11 11 12 13 13 14 14 15 15 16 17 18 19 20 20 21 22 23 23 24 25 26 27 27 27 28 28 28 28 28 27 28 29 30 31 32 33 34 34 35 35 36 36 36 36 36 36 36 35 36 37 36 36 37 37 37 38 38 39 39 39 39 41 41 39 39 38
12 12 12 12 12 12 11 11 11 11 10 10 10 10 10 10 10 11 12 12 12 13 13 14 15 15 16 17 18 19 20 21 22 23 23 24 25 26 27 27 28 28 28 28 28 28 28 29 30 31 32 33 34 35 36 36 37 38 38 39 39 39 38 38 38 39 39 39 40 40 40 39 39 39 38 38 40 41 41 41 42 42 41 40 40
13 13 13 12 12 11 11 11 11 10 9 10 10 10 10 11 11 11 12 12 13 13 14 14 16 17 18 19 20 21 22 22 23 24 25 26 27 28 29 29 29 29 29 29 29 29 30 31 33 34 35 37 38 38 39 40 41 41 41 42 42 41 41 40 41 41 41 42 43 43 42 41 41 41 40 39 40 41 42 43 43 43 41 41 40
13 13 13 12 12 11 11 10 9 9 9 10 10 10 10 11 11 12 12 13 13 14 15 16 17 18 20 21 22 22 23 24 25 26 27 28 30 31 31 31 31 31 31 31 31 32 33 34 36 37 38 39 40 41 41 42 43 43 43 43 43 43 43 43 43 44 44 44 44 44 43 42 42 42 42 42 42 42 43 43 44 44 42 41 40
14 13 12 12 11 11 10 9 9 9 10 10 10 10 11 11 12 12 13 13 14 16 17 18 19 20 22 23 23 24 25 26 28 29 30 32 33 33 33 33 33 33 33 33 34 35 36 37 38 39 39 40 41 41 42 42 43 43 44 44 44 45 45 46 46 46 46 45 45 44 43 43 43 43 44 44 43 44 44 44 44 43 42 41 41
13 13 12 11 11 10 10 9 9 10 10 10 11 11 11 12 12 13 14 15 16 17 18 20 21 22 23 25 26 27 28 29 30 32 33 34 35 35 35 35 35 35 35 36 36 37 38 38 39 39 40 40 41 41 42 42 43 44 44 45 45 46 46 47 47 47 47 46 46 45 44 44 44 44 45 45 45 45 44 45 46 44 42 41 41
12 12 11 11 10 10 10 10 10 10 10 11 11 11 12 13 13 14 15 16 17 19 20 22 23 24 25 26 28 29 30 32 33 34 35 35 35 35 35 35 35 36 36 37 38 38 39 39 39 40 40 40 41 41 42 42 43 44 45 45 46 46 47 47 47 47 47 46 46 45 45 45 45 46 46 46 45 46 46 46 47 46 44 42 40
11 11 11 10 10 10 10 10 10 11 11 11 12 12 13 14 14 15 16 18 19 20 22 23 24 26 27 28 30 31 32 33 34 35 35 35 35 35 36 36 36 37 38 38 39 40 40 40 40 40 40 40 41 42 43 44 44 44 45 45 46 46 46 46 47 47 47 47 47 46 46 46 46 47 48 48 47 46 47 47 47 46 45 45 43
11 11 10 10 10 10 10 10 10 11 11 12 13 13 14 14 15 16 17 19 20 22 23 25 27 28 29 30 31 32 33 34 35 35 35 35 35 36 36 37 37 38 39 39 40 40 41 41 41 41 41 41 42 43 44 44 45 45 45 45 46 46 46 47 47 48 48 48 48 47 47 47 48 49 49 49 48 47 47 47 47 46 45 45 45
11 10 10 10 10 10 10 10 10 11 12 13 13 14 14 15 16 17 18 20 22 24 25 27 28 29 30 31 32 33 34 34 34 34 34 35 36 37 37 38 39 39 39 40 40 41 41 41 41 41 41 42 43 43 44 45 45 46 46 46 46 47 47 47 48 48 48 48 48 48 47 47 48 48 48 49 48 48 47 47 46 45 45 45 43
10 10 10 10 10 10 10 10 11 12 12 13 13 14 15 16 17 18 20 22 24 26 27 28 29 29 31 32 33 33 33 33 33 34 35 36 37 38 39 39 39 40 40 40 41 41 41 41 41 41 42 42 43 44 44 45 45 45 46 46 46 47 47 47 47 48 48 48 47 47 47 46 46 46 45 45 45 46 46 46 46 45 44 44 42
10 10 10 10 10 10 10 11 12 12 12 13 14 15 16 17 19 21 22 24 25 26 27 28 29 31 32 33 33 33 32 33 34 35 37 38 39 39 40 40 40 40 40 41 41 41 41 41 41 41 42 42 43 43 44 44 44 45 45 46 46 47 47 46 46 46 46 46 45 45 44 44 42 40 39 39 39 40 42 43 43 43 42 41 41
10 10 10 10 10 10 11 11 12 12 13 14 15 16 18 20 21 22 23 25 26 27 28 30 31 32 32 32 32 32 33 34 35 37 38 39 40 40 40 40 40 40 41 41 41 41 41 41 41 41 41 42 42 43 43 43 44 44 45 45 45 45 44 43 42 42 42 42 42 41 41 40 39 37 36 35 35 36 36 37 37 37 37 37 37
10 10 10 10 10 11 11 11 11 12 13 15 16 18 20 21 21 22 24 25 27 28 30 31 32 31 31 31 31 32 34 35 37 38 39 40 41 41 41 41 41 40 40 40 40 40 40 40 39 40 40 41 42 42 43 43 43 44 43 42 41 40 39 39 39 40 40 41 41 40 39 39 39 38 38 37 37 37 37 36 36 36 36 35 35
10 10 10 10 10 10 10 11 12 13 15 17 19 20 20 21 22 24 25 27 28 29 31 31 30 30 30 31 32 34 35 36 38 39 40 40 41 41 41 40 40 40 40 40 40 40 39 39 39 40 40 41 42 42 42 42 42 42 41 39 38 38 38 39 40 41 41 41 41 41 41 41 41 41 41 41 41 41 40 40 40 40 39 38 37
10 10 10 10 10 10 10 12 13 15 17 18 19 19 20 21 24 25 27 28 29 30 30 30 29 29 30 31 33 34 36 37 38 39 40 40 40 40 40 39 39 39 39 40 39 38 39 40 40 41 41 41 43 44 43 43 42 40 38 38 38 39 40 41 42 42 41 39 39 39 40 41 42 42 42 42 43 42 42 43 43 43 42 40 39
9 9 9 10 10 10 11 13 14 15 17 18 18 19 21 23 25 26 27 28 29 29 29 29 28 29 31 32 34 35 36 37 38 39 39 40 40 40 39 39 39 39 39 39 38 38 39 42 43 42 42 43 44 45 44 43 41 39 38 39 40 41 42 42 41 39 37 36 35 36 36 38 39 41 41 41 42 42 43 43 44 43 43 41 39
9 9 9 9 10 11 12 13 14 15 16 18 19 21 22 24 25 26 27 28 29 29 28 28 29 30 31 33 33 34 35 37 38 39 39 40 40 40 39 39 39 39 39 38 38 40 42 44 45 44 43 43 45 45 44 42 40 39 39 40 42 43 42 40 37 34 33 34 35 36 36 37 37 38 39 39 39 40 41 42 42 42 42 41 39
8 9 9 10 11 12 12 12 14 15 17 18 20 21 23 24 25 27 27 28 28 28 28 28 29 31 32 33 33 34 36 37 38 39 40 40 40 40 40 40 40 39 38 38 39 42 45 47 48 46 44 44 45 45 42 41 40 39 41 42 42 40 38 35 32 32 34 36 36 37 37 38 39 38 38 37 37 38 38 39 39 40 40 39 37
8 9 9 10 11 11 11 12 14 16 17 19 20 22 23 24 26 27 28 28 29 28 28 29 30 31 32 32 33 35 36 37 39 40 40 40 40 40 40 40 40 39 39 39 41 44 47 49 48 46 45 46 46 44 42 41 41 41 41 39 35 33 32 32 32 33 35 35 34 34 34 36 37 38 37 35 35 35 36 37 37 37 37 36 35
8 9 9 10 10 10 11 12 14 16 17 19 20 22 23 25 26 28 28 29 29 28 29 30 31 31 32 32 34 35 37 38 39 40 40 41 41 41 41 41 40 39 39 41 43 46 49 50 49 46 45 47 46 43 42 41 40 39 34 30 29 29 30 30 30 30 30 29 27 26 27 29 30 32 32 31 31 32 33 35 35 35 34 34 33
8 9 9 10 9 10 11 12 14 16 17 19 21 22 24 26 27 28 29 29 29 29 29 31 32 32 32 32 34 36 37 39 39 40 41 41 41 41 41 41 40 40 41 42 45 47 49 50 49 48 47 47 44 40 37 34 33 33 30 27 27 27 27 27 25 23 22 20 17 16 17 20 21 23 25 25 27 29 31 32 33 33 32 32 32
8 8 9 9 9 10 11 12 14 16 18 19 21 23 24 26 27 28 29 29 29 29 30 32 32 32 32 33 35 37 38 39 40 40 41 41 41 41 42 41 41 40 42 44 46 48 50 49 48 48 48 46 41 35 30 27 27 29 30 29 26 25 23 21 19 18 16 13 11 12 13 14 15 16 19 22 24 27 29 30 31 32 32 32 31
7 7 8 8 8 9 10 12 14 16 18 19 21 22 24 26 27 29 29 30 30 30 31 33 33 33 33 34 36 38 39 39 40 41 41 41 42 42 42 41 41 41 42 44 47 49 49 47 47 48 47 42 35 30 26 26 28 30 30 28 25 23 20 16 14 14 13 11 11 13 11 9 10 11 14 18 21 23 26 28 30 32 32 31 31
6 7 7 7 7 9 10 12 13 15 17 18 20 22 24 26 27 29 30 30 31 32 33 33 34 34 34 35 36 38 39 40 41 41 41 41 42 42 42 41 41 42 43 45 47 48 47 47 49 48 45 39 32 28 28 29 31 31 30 27 25 24 20 16 15 14 11 10 12 11 6 4 4 5 9 13 16 19 22 25 28 31 31 30 30
6 5 5 6 7 8 10 11 13 15 16 18 19 21 23 26 28 30 31 32 32 33 34 34 35 35 35 35 36 38 39 41 41 41 41 41 42 42 41 41 42 43 44 46 48 48 48 49 50 47 42 38 33 31 32 32 32 31 30 27 25 23 19 16 14 13 11 10 10 6 0 2 1 3 7 10 14 15 18 21 25 28 29 29 29
5 4 4 5 7 8 10 11 13 15 16 18 19 21 24 26 29 30 32 33 33 34 34 35 35 35 36 36 37 38 40 41 41 41 41 41 42 41 41 42 42 43 45 47 48 49 48 49 50 45 40 38 35 33 33 32 31 30 29 28 27 23 18 14 13 11 10 10 9 5 4 4 5 7 9 10 12 12 14 19 22 26 27 28 30
4 3 4 5 7 8 10 11 13 14 16 17 19 21 24 27 29 30 32 33 33 34 34 35 36 36 36 37 38 39 40 41 41 41 41 41 41 41 41 41 42 44 46 47 49 49 49 49 49 44 39 39 35 32 32 31 31 30 28 28 28 25 20 15 13 10 9 9 9 7 6 7 8 9 10 10 12 13 16 19 22 25 25 29 33
4 4 4 5 7 8 10 11 13 14 16 17 19 21 24 26 29 30 32 33 34 34 35 36 36 37 37 38 39 39 41 42 41 41 41 41 41 41 41 41 42 44 46 48 50 50 48 48 48 43 38 38 35 31 31 30 30 29 27 27 28 28 25 19 15 11 9 9 8 7 8 10 10 10 10 10 13 15 18 20 22 24 27 31 32
4 4 4 5 7 8 10 11 13 14 16 18 19 21 23 26 28 30 32 33 34 35 36 37 38 38 38 38 39 40 41 42 41 41 41 41 41 40 40 40 42 45 47 50 51 50 48 47 47 43 38 37 35 31 30 29 28 28 27 26 26 27 28 24 18 14 11 11 10 10 11 12 12 12 11 12 15 15 18 21 22 24 29 30 29
5 6 5 6 7 8 10 11 13 14 16 18 19 21 23 26 28 30 32 34 35 36 37 38 39 38 37 38 39 40 40 41 41 41 41 41 40 40 39 40 42 45 47 50 51 49 47 47 47 44 38 37 35 31 29 28 26 26 26 25 25 26 26 24 20 17 14 12 12 13 12 13 13 12 13 15 18 18 20 22 23 25 28 27 27
6 7 6 6 7 8 10 11 13 14 16 18 19 21 23 26 28 30 32 34 36 37 38 39 39 38 37 38 39 39 40 41 41 40 40 40 40 39 39 40 42 45 48 50 51 49 47 47 48 45 40 36 34 31 29 29 27 25 25 24 25 25 24 21 18 16 14 12 13 16 15 15 14 13 14 16 18 20 22 24 25 25 24 23 26
Wind_Direction
275 273 272 271 272 274 277 278 278 279 282 285 287 289 289 289 289 289 289 289 290 290 290 290 291 293 294 294 293 293 291 290 289 288 287 286 286 285 284 283 282 281 280 279 278 277 276 275 274 274 274 274 273 273 273 272 272 272 272 272 272 271 271 270 269 268 268 267 267 267 266 266 266 265 264 264 263 262 262 262 263 263 263 263 263
268 269 270 272 273 274 275 277 278 280 283 286 287 287 286 286 288 290 291 292 293 293 293 292 293 294 295 294 293 292 290 289 288 287 285 284 283 282 281 280 279 279 278 278 277 276 276 275 274 274 274 273 273 272 272 271 271 271 270 270 270 270 270 270 269 268 267 267 266 266 266 266 265 265 265 265 264 264 263 262 262 262 262 262 263
275 275 273 273 274 275 275 276 278 280 282 284 286 287 288 290 291 293 293 295 296 297 297 296 296 296 296 295 294 293 291 290 288 287 285 284 282 281 280 279 278 278 278 278 278 278 277 277 277 276 275 274 274 273 272 272 271 271 271 271 270 270 269 269 269 269 268 267 266 265 265 265 264 264 264 264 264 264 264 263 263 262 262 262 262
280 278 273 273 274 275 275 275 277 280 282 283 285 287 290 292 293 294 294 295 295 296 297 297 297 296 295 294 293 291 291 289 288 287 286 285 284 284 283 283 283 283 283 283 282 281 281 280 279 278 277 276 276 275 274 274 273 272 272 272 272 271 271 270 270 269 269 268 267 266 265 265 264 264 263 263 263 263 263 263 263 262 262 261 261
273 271 271 273 274 274 273 275 279 282 286 288 288 288 288 289 291 293 294 294 294 295 295 295 294 293 292 291 291 290 290 290 291 290 290 290 290 290 289 290 289 289 288 288 287 286 285 283 282 281 280 279 278 278 277 277 276 275 275 274 274 274 274 273 272 271 271 270 269 268 266 265 264 264 264 263 263 263 263 263 262 261 261 261 261
268 270 270 274 274 274 275 278 283 287 293 294 294 291 289 288 289 291 293 294 294 295 294 294 293 292 292 292 294 294 294 294 294 294 294 293 293 293 293 292 292 291 290 289 289 288 288 287 287 285 284 283 282 281 280 279 279 278 277 277 276 276 276 275 275 275 274 273 272 271 269 268 266 265 264 264 264 263 263 263 263 263 262 262 261
271 273 274 273 271 273 278 283 289 292 294 294 294 293 292 292 292 294 295 296 296 296 296 295 295 295 296 297 297 296 296 295 295 295 294 295 295 294 294 293 293 293 293 293 293 293 292 292 291 291 290 289 288 287 286 284 283 282 281 280 279 278 277 277 277 277 276 276 275 274 273 271 269 267 266 265 264 264 263 263 264 264 264 263 262
266 268 268 263 263 270 278 285 288 290 293 296 298 299 299 300 300 300 300 300 300 300 299 299 300 301 301 301 300 300 299 299 299 298 299 299 299 299 299 299 299 299 299 299 298 297 297 296 295 295 294 293 292 291 290 289 288 286 285 283 282 281 280 279 278 278 277 277 276 276 275 274 273 271 269 267 265 264 263 263 262 263 264 263 262
235 240 247 246 258 269 276 284 289 294 299 302 303 302 302 302 301 301 302 303 302 303 303 304 304 305 306 307 307 307 306 306 305 305 306 307 306 306 306 305 305 304 304 303 301 300 299 298 297 295 294 293 292 291 290 289 288 287 286 285 284 283 282 281 280 280 279 278 277 277 276 276 275 275 273 271 269 267 265 264 263 262 263 263 263
158 184 243 255 261 274 289 298 302 303 304 304 302 301 300 300 302 303 305 305 305 306 307 309 311 312 313 312 312 311 311 310 311 312 313 313 312 311 311 310 309 307 306 304 302 300 299 298 296 294 293 291 290 289 288 288 287 286 285 284 284 283 282 282 281 280 279 279 278 277 277 277 276 275 275 274 273 271 268 266 265 264 263 264 264
69 68 278 266 280 293 306 308 306 305 305 305 305 305 305 307 309 310 311 312 313 315 317 319 319 319 318 317 317 316 316 317 318 319 318 317 315 314 313 312 310 308 306 304 301 299 298 296 294 292 290 289 288 287 287 286 285 284 284 284 283 283 282 282 281 281 280 279 278 277 277 276 276 276 275 274 273 272 271 269 268 267 265 264 264
16 348 311 298 304 308 309 307 305 306 307 307 308 309 311 314 316 318 320 323 325 328 329 329 328 326 325 325 326 325 325 325 324 323 321 320 318 316 314 312 309 307 305 302 300 298 296 294 292 290 289 287 286 286 285 284 283 283 282 282 282 282 281 281 281 281 280 279 278 277 276 276 275 275 274 274 273 272 271 270 269 267 266 264 263
345 339 324 317 315 315 312 308 307 308 310 313 313 316 323 329 331 336 340 341 343 343 341 339 337 336 336 336 334 332 330 328 326 324 321 319 316 313 311 309 306 304 301 299 297 296 294 292 291 289 288 287 286 285 284 284 283 282 282 281 281 281 281 281 280 280 279 279 278 277 276 276 274 273 273 272 272 271 271 269 268 267 266 265 264
348 348 334 329 329 331 326 320 322 323 327 334 340 351 359 1 0 2 3 360 358 355 350 348 346 344 342 339 336 333 329 326 323 320 317 314 312 309 307 304 302 299 297 296 294 293 292 290 289 288 287 286 285 284 284 283 282 282 281 281 281 280 280 279 278 277 277 277 276 276 276 275 275 273 272 271 270 270 269 268 267 267 267 266 265
0 3 350 350 352 355 354 349 354 357 4 10 13 16 16 17 15 14 13 7 2 358 353 350 347 344 340 337 333 329 326 323 320 317 314 312 310 308 305 303 301 299 297 296 295 293 291 290 288 287 286 285 284 283 283 282 281 281 281 281 280 279 278 277 277 276 276 276 276 276 275 274 274 272 271 270 270 269 268 267 266 265 264 264 264
20 24 16 18 20 24 27 24 28 28 30 29 27 28 28 26 22 18 14 7 2 357 353 349 346 342 338 335 331 328 326 323 321 318 315 313 310 308 306 304 303 301 300 298 297 295 293 292 290 288 287 286 285 284 283 281 281 280 280 279 278 277 277 276 276 277 277 276 276 275 275 274 272 271 271 270 268 268 267 265 265 263 262 263 264
42 37 34 38 41 45 47 48 50 47 44 42 39 37 33 28 22 17 12 6 2 356 352 349 345 341 337 334 331 329 326 323 321 318 316 314 311 309 307 305 303 301 299 298 296 294 293 292 290 289 288 287 286 285 284 283 283 282 280 278 276 276 275 276 276 277 277 276 275 274 274 273 272 271 270 269 267 265 264 264 263 264 264 264 264
57 50 50 54 56 59 58 58 59 56 51 48 43 37 31 25 19 14 10 5 359 355 352 347 343 339 335 332 330 327 324 321 319 317 315 312 310 308 306 304 302 300 298 297 295 293 291 290 289 288 286 286 286 286 285 285 284 283 282 281 280 279 278 278 277 277 277 277 276 276 274 272 271 270 269 267 266 264 263 263 262 262 263 263 264
60 59 60 62 65 66 64 61 57 54 49 44 40 34 28 23 17 12 8 3 357 352 348 344 340 337 333 330 328 325 323 320 318 316 313 311 310 308 307 305 303 302 300 298 296 294 292 290 288 286 284 284 285 286 285 285 284 284 283 283 282 281 281 281 280 279 279 279 279 278 276 273 271 269 267 265 265 265 263 262 262 261 262 263 264
63 65 65 65 66 66 65 61 55 50 44 40 37 34 29 23 17 12 6 1 355 349 345 342 339 335 332 330 328 326 324 321 320 317 315 314 313 311 310 309 307 305 303 300 298 296 293 290 287 284 284 285 285 285 285 285 285 284 283 283 282 281 281 281 281 281 281 282 281 279 277 275 272 270 268 266 265 263 262 261 261 261 260 262 264
70 71 70 68 66 63 62 58 54 48 43 39 36 32 25 20 14 8 3 358 352 348 345 341 338 335 333 331 330 328 326 324 322 320 318 317 316 314 313 312 310 307 304 302 299 296 292 289 286 285 285 285 285 285 285 286 285 285 285 284 283 281 280 280 280 281 282 283 282 281 279 276 273 270 268 266 264 262 261 261 261 261 260 259 261
75 75 73 70 67 64 61 56 52 47 43 38 31 26 20 15 10 5 360 355 351 348 345 341 339 337 335 334 333 331 328 325 323 321 320 319 318 317 316 314 312 310 308 305 302 299 295 292 289 288 287 287 287 287 287 287 287 287 286 285 284 282 281 280 281 281 282 283 283 281 279 275 272 269 267 264 263 262 260 260 261 261 260 259 259
77 76 73 70 67 64 61 56 51 47 41 35 27 22 17 13 7 2 358 355 351 349 346 343 341 338 337 336 334 331 328 326 324 323 322 321 320 320 318 317 315 313 311 308 305 302 299 297 295 294 292 291 291 290 289 288 288 287 286 285 284 283 282 281 281 281 281 282 281 279 277 274 271 269 266 264 262 261 259 259 260 260 260 260 259
78 75 72 70 67 63 59 53 49 44 38 31 25 20 16 11 5 1 358 355 352 349 346 344 341 339 339 337 334 332 330 328 327 326 325 324 323 321 320 318 316 314 311 308 306 304 302 300 298 297 296 295 294 293 291 290 289 288 287 286 285 284 283 282 281 281 280 279 278 276 275 272 270 268 266 265 262 261 260 259 260 260 259 259 257
76 74 72 69 65 60 55 50 45 40 34 28 24 19 13 8 4 1 358 355 353 348 345 344 342 340 338 336 334 333 331 330 329 328 327 325 323 321 319 317 315 313 310 308 306 304 302 301 300 299 299 298 297 295 293 292 291 289 288 287 286 285 284 283 282 281 280 278 276 274 272 270 269 268 266 265 264 262 260 259 259 259 257 258 257
75 73 71 67 62 57 51 46 41 35 31 26 21 16 11 7 4 1 357 354 350 347 343 343 341 339 337 336 335 334 333 332 330 328 326 324 322 320 318 316 313 311 309 307 305 303 303 302 302 302 301 299 297 296 294 293 292 291 290 289 288 287 285 284 283 281 280 278 276 274 272 270 268 266 264 263 262 260 259 258 258 258 256 255 256
75 73 69 65 59 53 47 42 37 32 28 24 19 14 10 6 3 359 355 352 348 345 342 341 340 339 337 337 336 335 334 332 329 327 326 324 323 321 318 316 313 310 309 307 306 305 305 305 304 303 302 300 298 297 296 295 294 293 292 290 289 287 286 285 283 282 280 278 276 274 272 269 267 264 262 260 258 256 255 255 255 256 256 254 253
75 70 66 60 54 49 45 40 35 31 27 22 17 13 9 4 0 356 353 349 345 343 342 341 341 340 339 338 337 335 333 330 329 328 328 327 325 322 320 317 315 313 311 310 309 308 307 306 305 304 303 301 300 299 298 297 296 295 293 291 290 288 287 285 283 282 280 278 276 274 271 268 265 262 260 259 256 253 251 251 251 252 253 254 253
71 65 61 56 52 46 42 38 34 31 26 21 16 10 6 2 358 354 350 346 344 344 344 343 342 341 339 338 335 333 332 331 331 331 330 328 326 324 322 321 319 317 315 313 312 310 309 308 306 305 304 303 302 301 300 299 297 296 294 292 290 288 286 285 283 281 279 277 275 272 269 266 263 261 259 257 255 252 250 249 248 249 249 251 252
66 62 57 53 49 45 42 38 33 29 24 18 13 8 3 358 354 351 349 347 346 347 346 343 341 340 339 336 335 334 333 334 334 333 331 329 328 327 325 324 321 319 317 315 314 312 311 309 308 307 306 306 304 303 301 300 298 296 294 291 289 287 286 283 281 280 278 275 273 271 268 265 263 260 257 255 253 252 250 247 246 247 247 248 249
62 58 54 52 49 45 41 36 33 28 21 16 10 5 360 356 354 353 351 349 349 348 345 343 342 341 339 337 336 336 337 336 334 333 331 330 330 328 327 325 322 320 318 317 315 314 312 311 310 309 308 307 306 304 302 300 298 296 294 292 290 288 286 284 281 279 277 275 273 271 268 264 261 257 254 251 249 249 248 247 245 246 247 247 248
59 56 54 52 48 45 41 37 32 25 18 13 7 2 359 358 356 354 352 352 351 348 346 345 343 341 340 339 339 339 338 336 335 334 333 332 330 329 327 325 323 321 319 318 317 315 314 313 313 312 311 309 308 306 304 302 299 297 295 293 290 288 287 284 282 280 278 276 273 270 267 262 258 254 251 247 245 244 244 243 243 244 245 247 248
58 55 53 50 47 44 42 37 29 22 15 9 5 3 1 359 356 354 355 353 351 348 347 346 343 342 342 342 342 340 339 337 336 335 334 333 331 330 328 326 325 323 321 320 318 317 316 316 316 315 315 314 312 310 307 304 301 299 296 294 292 291 289 286 284 282 280 277 273 269 265 261 258 254 251 247 243 241 239 238 238 241 244 246 247
57 54 51 49 48 45 40 34 25 18 13 9 6 4 1 357 357 357 357 354 351 349 347 345 344 345 345 344 343 341 340 338 337 336 335 334 333 332 330 329 327 325 323 321 320 320 319 319 318 319 319 318 315 311 309 307 305 303 300 298 296 294 293 290 287 284 281 278 274 270 265 262 259 256 253 249 245 241 238 237 237 240 243 245 246
55 53 52 50 48 44 38 29 22 16 12 9 6 3 360 360 0 359 356 354 351 349 347 346 347 347 346 344 343 342 340 339 339 338 337 337 336 335 334 332 330 327 325 323 323 324 324 324 323 323 322 320 318 315 313 311 309 306 303 300 299 298 296 293 290 286 282 279 275 270 266 263 260 256 253 250 247 244 241 240 240 242 243 244 245
55 55 53 51 48 42 35 26 20 16 11 8 5 3 2 3 2 359 356 353 350 348 348 348 348 347 345 344 343 342 342 341 341 340 340 340 339 339 338 335 332 329 327 327 328 328 329 329 328 327 325 323 322 320 318 314 311 307 304 301 300 299 297 294 289 284 281 278 275 271 267 264 260 256 253 249 247 245 243 241 241 242 243 243 243
57 55 54 52 48 40 31 24 18 14 11 7 6 6 5 3 1 358 355 352 350 349 349 350 349 347 345 344 344 343 343 342 342 342 342 342 342 342 340 337 334 332 331 332 332 332 333 333 332 330 328 327 325 323 319 315 311 308 304 302 301 300 297 293 287 281 279 279 276 273 270 266 262 258 254 250 246 244 242 241 240 240 241 240 239
57 56 55 51 46 37 28 21 17 13 10 9 8 7 5 2 359 356 353 351 351 351 351 351 349 347 345 344 344 344 343 344 343 344 344 344 344 343 341 339 336 335 335 335 335 337 337 336 335 332 331 330 327 324 320 316 312 309 307 305 304 302 298 292 284 281 282 282 279 275 270 266 263 259 255 251 246 242 239 238 238 237 237 236 235
57 56 54 51 43 32 23 18 15 13 12 11 9 6 3 0 357 355 353 352 353 353 353 351 349 346 345 345 344 344 344 344 344 345 345 346 345 344 342 340 339 338 338 337 339 340 339 337 336 334 333 332 330 327 324 320 315 312 311 309 308 306 301 294 289 287 287 286 283 277 270 265 261 258 255 250 244 239 235 234 233 232 232 231 231
56 55 53 49 39 26 19 16 14 13 13 11 8 5 2 358 356 355 353 353 354 354 353 351 348 346 345 345 344 344 344 344 345 345 346 347 346 345 343 342 341 341 340 340 342 342 340 339 337 335 335 334 334 331 329 325 320 317 316 314 313 311 305 301 297 295 294 292 288 281 273 265 258 253 250 244 237 232 229 228 227 226 225 225 226
53 54 52 46 33 21 16 14 13 13 12 10 6 3 360 357 356 355 354 354 355 355 353 351 348 346 345 346 345 345 345 344 345 346 347 348 347 346 345 344 343 342 342 344 344 343 341 341 339 337 338 338 337 336 334 331 327 325 324 322 321 317 313 311 309 308 308 304 300 295 283 268 257 247 240 233 225 223 221 221 220 218 217 217 219
51 52 51 42 27 16 13 11 12 12 11 7 4 1 358 357 355 355 355 355 355 355 354 351 348 346 346 346 346 346 345 344 345 347 348 348 348 348 347 346 345 345 346 347 345 343 343 343 342 342 342 341 341 342 341 338 336 334 332 332 331 327 324 322 323 329 331 323 310 305 294 269 250 240 231 222 216 214 213 212 212 210 210 210 212
50 51 48 36 20 11 9 9 11 11 8 4 2 360 357 355 355 355 355 356 356 356 354 351 349 347 347 347 347 347 345 345 346 347 349 349 349 349 349 348 347 348 350 349 346 345 346 346 346 347 347 346 347 351 351 349 347 344 341 341 341 338 337 337 340 343 340 329 313 306 297 264 246 239 224 215 210 206 205 205 205 203 203 204 206
50 49 43 29 14 6 5 7 9 8 5 1 359 357 355 354 355 356 356 357 357 356 354 352 350 348 347 348 348 348 346 346 347 348 349 350 350 351 351 350 350 352 352 350 349 348 350 351 351 353 353 352 357 360 359 358 354 351 350 349 348 349 350 351 355 353 344 334 328 321 301 248 239 224 204 202 200 198 199 199 200 199 197 198 199
49 44 37 20 8 3 3 5 6 4 0 358 356 355 354 354 356 357 357 358 358 357 354 352 351 349 348 349 349 348 348 348 348 349 350 351 352 352 353 353 353 355 354 352 352 352 353 354 356 358 356 358 3 3 2 0 356 355 358 359 357 357 357 357 1 1 355 351 347 344 227 148 103 152 166 176 183 187 189 189 191 192 190 189 189
46 32 25 12 2 359 360 2 1 360 356 354 354 353 354 355 357 358 358 359 359 357 354 352 351 350 349 349 349 349 350 350 349 349 351 352 353 353 355 356 356 357 357 356 356 356 356 357 360 1 359 3 6 4 4 3 359 1 5 8 6 1 359 3 10 9 3 9 21 51 115 107 94 123 142 158 170 171 170 175 178 180 182 180 177
35 11 12 2 356 355 356 357 356 354 352 351 352 353 354 356 357 358 358 359 358 356 354 353 352 350 350 350 350 351 352 351 350 351 352 354 354 355 357 358 358 360 0 360 359 358 358 359 2 3 1 5 7 4 7 9 7 7 13 18 18 15 15 14 19 23 17 31 51 67 92 102 105 123 140 149 153 151 153 162 168 171 174 172 170
16 349 359 352 349 351 351 351 351 349 348 349 351 352 354 356 356 356 358 359 357 355 355 354 353 352 351 351 352 353 353 352 351 352 354 355 354 357 360 360 0 3 3 2 1 0 360 1 4 6 4 6 7 5 11 16 15 14 18 25 27 28 30 29 30 36 36 52 66 62 75 92 109 129 139 142 147 148 150 158 165 167 166 164 167
353 334 343 342 344 347 346 347 346 344 345 347 349 351 353 354 354 355 357 358 357 355 355 356 355 354 353 353 353 354 354 353 353 354 356 356 356 359 1 1 3 6 6 5 3 2 2 3 6 7 7 8 9 9 15 20 22 21 22 28 32 34 36 35 38 45 51 69 68 51 63 79 99 132 141 141 147 145 146 155 162 162 159 158 164
336 324 330 334 340 342 342 342 342 341 342 344 347 350 352 353 353 354 356 357 356 355 356 357 357 356 355 354 355 355 355 354 355 356 357 357 358 1 3 4 7 10 9 7 5 3 4 6 8 9 9 10 10 13 18 21 25 26 25 29 33 35 37 39 47 56 60 77 73 56 70 89 99 125 137 137 143 142 144 152 157 158 158 160 165
323 317 322 328 335 338 336 338 338 338 339 342 345 349 350 351 351 353 355 357 356 356 357 357 357 357 356 356 356 356 355 355 356 358 358 358 360 2 4 6 10 12 11 8 6 6 7 9 10 10 11 11 12 16 20 22 25 26 25 23 26 33 38 42 54 61 59 72 78 68 74 91 102 117 129 134 139 141 145 150 153 154 154 159 167
Height
5814 5814 5815 5815 5815 5816 5816 5815 5815 5815 5814 5814 5814 5814 5814 5813 5812 5812 5811 5811 5811 5810 5810 5810 5809 5808 5807 5807 5806 5805 5804 5803 5802 5801 5800 5799 5798 5797 5796 5796 5795 5794 5793 5792 5791 5790 5789 5788 5787 5786 5785 5784 5783 5782 5781 5781 5780 5780 5779 5779 5778 5777 5777 5777 5776 5776 5776 5776 5775 5775 5775 5775 5775 5775 5776 5776 5776 5777 5777 5777 5777 5777 5776 5776 5776
5813 5813 5814 5814 5814 5814 5814 5814 5813 5813 5813 5813 5813 5812 5812 5811 5811 5811 5810 5810 5810 5809 5809 5808 5807 5806 5805 5804 5804 5803 5801 5800 5799 5799 5798 5797 5796 5795 5794 5793 5792 5791 5790 5789 5788 5787 5786 5785 5784 5783 5782 5781 5780 5779 5778 5777 5777 5776 5775 5775 5774 5773 5773 5772 5772 5772 5772 5771 5771 5771 5771 5771 5771 5772 5772 5772 5773 5773 5773 5774 5774 5773 5772 5772 5772
5812 5812 5813 5813 5813 5813 5813 5812 5812 5811 5811 5811 5811 5810 5810 5810 5810 5809 5809 5809 5808 5808 5807 5806 5805 5804 5803 5802 5801 5800 5799 5798 5797 5796 5795 5794 5794 5793 5792 5791 5790 5789 5787 5786 5785 5784 5783 5782 5781 5780 5779 5778 5777 5776 5775 5774 5773 5773 5772 5771 5770 5770 5769 5769 5768 5768 5767 5767 5767 5767 5767 5767 5768 5768 5768 5768 5769 5769 5769 5770 5770 5770 5769 5769 5769
5812 5812 5812 5812 5812 5811 5811 5811 5810 5810 5810 5810 5810 5809 5809 5809 5808 5808 5808 5807 5807 5806 5805 5804 5803 5802 5801 5800 5799 5798 5797 5796 5795 5794 5793 5793 5792 5791 5790 5789 5787 5786 5785 5784 5783 5781 5780 5779 5778 5777 5776 5775 5774 5773 5772 5771 5771 5770 5769 5768 5767 5766 5766 5765 5765 5764 5763 5763 5763 5763 5763 5763 5764 5764 5764 5765 5765 5765 5766 5766 5767 5766 5766 5765 5765
5811 5811 5811 5811 5810 5810 5809 5809 5809 5809 5809 5809 5809 5808 5808 5808 5807 5807 5806 5805 5805 5804 5803 5802 5801 5800 5799 5799 5798 5797 5796 5795 5794 5793 5792 5791 5790 5789 5788 5786 5785 5784 5783 5782 5780 5779 5778 5777 5776 5774 5773 5772 5771 5770 5769 5768 5768 5767 5766 5765 5764 5763 5763 5762 5761 5761 5760 5759 5759 5759 5759 5759 5760 5760 5760 5761 5761 5761 5762 5762 5762 5762 5762 5762 5762
5809 5809 5809 5809 5809 5809 5808 5808 5808 5808 5808 5808 5808 5807 5807 5806 5806 5805 5805 5804 5803 5802 5801 5801 5800 5799 5798 5797 5796 5795 5794 5793 5792 5791 5790 5789 5788 5787 5786 5785 5783 5782 5781 5780 5778 5777 5776 5774 5773 5772 5771 5770 5769 5768 5767 5766 5765 5764 5763 5762 5761 5760 5760 5759 5758 5758 5757 5756 5756 5755 5755 5755 5756 5756 5756 5757 5757 5757 5758 5758 5758 5758 5758 5758 5758
5808 5808 5808 5808 5808 5808 5808 5808 5808 5808 5808 5807 5807 5806 5806 5805 5805 5804 5803 5802 5801 5801 5800 5799 5798 5797 5796 5795 5795 5794 5793 5792 5791 5790 5789 5788 5787 5786 5784 5783 5782 5780 5779 5778 5776 5775 5773 5772 5771 5770 5768 5767 5766 5765 5764 5763 5762 5761 5760 5759 5758 5757 5757 5756 5755 5754 5754 5753 5752 5752 5752 5752 5752 5752 5752 5753 5753 5753 5754 5754 5754 5754 5753 5753 5754
5807 5807 5807 5807 5807 5807 5807 5807 5807 5807 5807 5806 5806 5805 5804 5804 5803 5802 5802 5801 5800 5799 5798 5798 5797 5796 5795 5794 5793 5792 5791 5791 5790 5788 5787 5786 5785 5784 5782 5781 5780 5778 5777 5775 5774 5773 5771 5770 5769 5767 5766 5765 5764 5762 5761 5760 5759 5758 5757 5756 5755 5754 5754 5753 5752 5751 5751 5750 5749 5749 5748 5748 5748 5748 5748 5749 5749 5749 5750 5750 5750 5750 5749 5749 5749
5806 5806 5806 5806 5806 5806 5806 5806 5806 5806 5806 5805 5804 5804 5803 5802 5802 5801 5800 5800 5799 5798 5797 5797 5796 5795 5794 5793 5792 5791 5790 5789 5788 5787 5786 5785 5783 5782 5781 5779 5778 5776 5775 5773 5772 5771 5769 5768 5767 5765 5764 5763 5761 5760 5759 5758 5756 5755 5754 5753 5752 5751 5750 5750 5749 5748 5747 5747 5746 5746 5745 5745 5745 5745 5744 5744 5745 5745 5746 5746 5746 5746 5746 5746 5745
5805 5805 5806 5806 5806 5806 5806 5806 5806 5805 5805 5804 5804 5803 5802 5802 5801 5800 5800 5799 5798 5797 5797 5796 5795 5794 5793 5792 5791 5790 5789 5788 5787 5786 5784 5783 5782 5780 5779 5777 5776 5774 5773 5772 5770 5769 5767 5766 5765 5763 5762 5760 5759 5758 5756 5755 5754 5752 5751 5750 5749 5748 5747 5746 5746 5745 5744 5743 5743 5743 5742 5742 5742 5741 5741 5741 5741 5741 5741 5742 5742 5742 5742 5742 5742
5805 5805 5805 5805 5805 5805 5805 5805 5805 5805 5804 5803 5803 5802 5802 5801 5800 5800 5799 5798 5797 5797 5796 5795 5794 5793 5792 5792 5791 5790 5789 5787 5786 5784 5783 5782 5780 5779 5777 5776 5774 5773 5771 5770 5768 5767 5766 5764 5763 5761 5759 5758 5757 5755 5754 5752 5751 5750 5749 5747 5746 5745 5744 5743 5743 5742 5741 5740 5740 5739 5739 5739 5739 5738 5738 5737 5737 5737 5737 5738 5738 5738 5739 5739 5738
5804 5804 5805 5805 5805 5805 5805 5805 5804 5804 5803 5803 5802 5801 5801 5800 5800 5799 5798 5798 5797 5796 5795 5795 5794 5793 5792 5791 5790 5788 5787 5786 5784 5783 5781 5780 5778 5777 5775 5774 5772 5771 5769 5768 5766 5765 5763 5762 5760 5759 5757 5756 5754 5753 5751 5750 5748 5747 5746 5745 5744 5742 5742 5741 5740 5739 5738 5737 5737 5736 5736 5735 5735 5735 5734 5734 5734 5734 5734 5734 5734 5734 5734 5734 5733
5804 5804 5804 5804 5805 5805 5804 5804 5804 5803 5802 5802 5802 5801 5801 5800 5799 5799 5798 5797 5796 5796 5795 5794 5793 5792 5791 5790 5788 5787 5786 5784 5783 5781 5780 5779 5777 5776 5774 5772 5771 5769 5768 5766 5764 5763 5761 5760 5758 5756 5755 5753 5751 5750 5748 5747 5746 5744 5743 5742 5741 5740 5739 5738 5737 5736 5735 5734 5734 5733 5733 5732 5732 5731 5731 5730 5730 5730 5730 5729 5729 5729 5729 5729 5728
5804 5804 5804 5804 5804 5804 5804 5803 5803 5802 5802 5802 5801 5801 5800 5799 5799 5798 5798 5797 5796 5795 5794 5793 5792 5791 5790 5789 5787 5786 5785 5784 5782 5781 5779 5778 5776 5775 5773 5771 5770 5768 5766 5764 5762 5761 5759 5757 5756 5754 5752 5750 5749 5747 5746 5744 5743 5741 5740 5739 5737 5736 5735 5734 5733 5732 5731 5731 5730 5730 5729 5729 5729 5728 5728 5727 5726 5726 5725 5725 5725 5725 5724 5724 5723
5804 5804 5804 5804 5804 5803 5803 5802 5802 5802 5801 5801 5801 5800 5800 5799 5798 5798 5797 5796 5795 5794 5794 5793 5792 5790 5789 5788 5787 5786 5784 5783 5781 5780 5778 5777 5775 5773 5772 5770 5768 5766 5764 5762 5760 5758 5756 5755 5753 5751 5749 5748 5746 5744 5743 5741 5740 5738 5737 5736 5734 5733 5732 5731 5730 5729 5728 5727 5726 5726 5726 5726 5725 5724 5724 5724 5723 5722 5722 5721 5721 5720 5719 5719 5719
5803 5803 5803 5803 5803 5803 5802 5802 5802 5801 5801 5801 5800 5800 5799 5798 5798 5797 5796 5796 5795 5794 5793 5792 5791 5790 5788 5787 5786 5784 5783 5781 5780 5778 5777 5775 5773 5772 5770 5768 5766 5764 5762 5760 5758 5756 5754 5752 5750 5748 5746 5745 5743 5741 5740 5738 5737 5736 5734 5733 5731 5730 5729 5728 5727 5726 5725 5724 5723 5722 5722 5722 5721 5721 5721 5720 5720 5719 5718 5717 5717 5715 5714 5715 5715
5803 5803 5802 5802 5802 5802 5802 5802 5802 5801 5801 5801 5800 5800 5799 5798 5798 5797 5796 5796 5795 5794 5793 5792 5790 5789 5788 5786 5785 5783 5782 5780 5779 5777 5775 5773 5772 5770 5768 5766 5764 5762 5760 5758 5756 5753 5751 5749 5747 5745 5743 5741 5740 5738 5737 5735 5734 5732 5731 5729 5728 5727 5725 5724 5723 5722 5721 5720 5719 5719 5718 5718 5717 5717 5717 5716 5715 5715 5714 5714 5713 5712 5711 5712 5711
5802 5802 5802 5802 5802 5802 5802 5802 5801 5801 5801 5801 5800 5799 5799 5798 5797 5797 5796 5795 5794 5793 5792 5791 5790 5788 5787 5785 5784 5783 5781 5779 5777 5776 5774 5772 5770 5768 5766 5764 5762 5760 5757 5755 5753 5751 5749 5746 5744 5742 5741 5739 5737 5735 5733 5732 5730 5728 5727 5725 5724 5723 5721 5720 5719 5718 5718 5717 5716 5715 5714 5713 5713 5712 5712 5711 5710 5710 5710 5710 5709 5709 5709 5708 5708
5802 5802 5802 5802 5802 5802 5802 5802 5801 5801 5801 5800 5800 5800 5799 5798 5797 5797 5796 5795 5794 5793 5792 5790 5789 5788 5786 5785 5783 5782 5780 5778 5776 5775 5773 5771 5769 5766 5764 5762 5759 5757 5755 5752 5750 5748 5746 5744 5742 5740 5738 5736 5734 5732 5730 5728 5726 5724 5723 5721 5719 5718 5717 5715 5714 5714 5713 5713 5712 5711 5710 5709 5709 5708 5707 5706 5705 5705 5706 5706 5705 5706 5705 5705 5705
5802 5802 5802 5802 5802 5802 5802 5802 5801 5801 5801 5801 5800 5800 5799 5798 5797 5797 5796 5794 5793 5792 5791 5790 5788 5787 5786 5784 5783 5781 5779 5777 5775 5773 5771 5769 5767 5764 5762 5759 5757 5754 5752 5749 5747 5745 5743 5741 5739 5736 5734 5732 5730 5728 5726 5724 5722 5720 5718 5717 5715 5714 5712 5711 5710 5709 5708 5708 5707 5707 5706 5705 5704 5704 5703 5702 5701 5700 5700 5701 5701 5701 5701 5702 5702
5802 5803 5803 5803 5803 5803 5802 5802 5802 5801 5801 5801 5800 5800 5799 5798 5797 5796 5795 5794 5793 5792 5791 5789 5788 5786 5785 5783 5782 5780 5778 5775 5773 5771 5769 5766 5764 5761 5759 5757 5754 5751 5749 5746 5744 5742 5740 5737 5735 5733 5731 5728 5726 5724 5722 5719 5717 5715 5714 5712 5710 5709 5708 5706 5705 5704 5703 5703 5702 5701 5701 5700 5699 5699 5698 5697 5696 5695 5695 5696 5696 5696 5698 5698 5697
5803 5803 5803 5803 5803 5803 5803 5803 5802 5802 5802 5801 5800 5800 5799 5798 5797 5796 5795 5794 5793 5792 5790 5789 5787 5786 5784 5782 5780 5778 5776 5773 5771 5769 5766 5764 5761 5759 5756 5753 5751 5748 5746 5743 5741 5739 5736 5734 5731 5729 5726 5724 5722 5719 5717 5714 5712 5710 5708 5706 5705 5703 5702 5701 5700 5699 5698 5697 5696 5696 5695 5694 5693 5693 5693 5692 5692 5690 5691 5691 5690 5691 5693 5693 5693
5804 5804 5804 5804 5804 5804 5804 5803 5803 5803 5802 5801 5801 5800 5799 5798 5797 5796 5795 5794 5792 5791 5790 5788 5786 5785 5783 5780 5778 5776 5774 5771 5769 5766 5764 5761 5759 5756 5753 5750 5747 5745 5742 5740 5737 5735 5732 5729 5727 5724 5721 5719 5716 5714 5711 5709 5707 5705 5703 5701 5700 5698 5697 5695 5694 5693 5692 5691 5690 5689 5689 5688 5688 5687 5687 5687 5686 5686 5686 5686 5686 5686 5688 5689 5690
5804 5804 5804 5805 5805 5804 5804 5804 5803 5803 5802 5801 5801 5800 5798 5797 5796 5795 5794 5793 5792 5790 5789 5787 5785 5783 5781 5779 5777 5774 5772 5769 5766 5764 5761 5758 5755 5752 5749 5747 5744 5741 5739 5736 5733 5731 5728 5725 5722 5719 5716 5714 5711 5708 5706 5703 5701 5699 5697 5695 5694 5692 5690 5689 5687 5686 5685 5684 5684 5683 5682 5682 5681 5681 5681 5681 5681 5681 5681 5682 5681 5682 5683 5685 5685
5805 5805 5805 5805 5805 5805 5805 5804 5804 5803 5802 5801 5800 5799 5798 5797 5796 5795 5794 5792 5791 5789 5787 5786 5784 5781 5779 5777 5774 5772 5769 5766 5764 5761 5758 5755 5752 5749 5746 5744 5741 5738 5735 5732 5730 5727 5724 5721 5718 5715 5712 5709 5706 5703 5700 5698 5695 5693 5691 5689 5687 5685 5683 5682 5680 5679 5678 5677 5677 5676 5676 5675 5675 5675 5675 5675 5675 5675 5676 5677 5676 5677 5679 5680 5679
5806 5806 5806 5806 5805 5805 5805 5804 5804 5803 5802 5801 5800 5799 5798 5797 5796 5795 5793 5792 5790 5788 5786 5784 5782 5780 5778 5775 5772 5770 5767 5764 5761 5758 5755 5752 5749 5747 5744 5741 5738 5735 5732 5729 5726 5723 5720 5717 5714 5711 5708 5705 5701 5698 5695 5692 5690 5687 5685 5683 5680 5678 5677 5675 5673 5672 5671 5670 5670 5669 5669 5668 5668 5668 5668 5668 5669 5669 5669 5670 5671 5672 5674 5674 5674
5806 5806 5806 5806 5806 5805 5805 5804 5804 5803 5802 5801 5800 5799 5798 5797 5795 5794 5793 5791 5789 5787 5785 5783 5781 5778 5776 5773 5770 5767 5764 5761 5758 5756 5753 5750 5747 5744 5741 5738 5735 5732 5728 5725 5722 5719 5716 5713 5710 5706 5703 5700 5696 5693 5689 5686 5684 5681 5679 5676 5674 5671 5669 5668 5666 5664 5663 5663 5662 5661 5661 5661 5660 5660 5660 5661 5662 5662 5662 5663 5665 5666 5668 5669 5670
5807 5806 5806 5806 5806 5805 5805 5804 5804 5803 5802 5801 5800 5799 5798 5796 5795 5793 5792 5790 5788 5786 5784 5781 5779 5777 5774 5771 5768 5765 5763 5759 5756 5753 5750 5747 5744 5741 5738 5735 5732 5728 5725 5722 5719 5715 5712 5708 5705 5701 5698 5694 5691 5687 5683 5680 5677 5674 5672 5669 5666 5664 5662 5660 5658 5656 5655 5655 5654 5653 5653 5653 5652 5652 5653 5654 5655 5656 5656 5657 5659 5661 5662 5664 5666
5807 5807 5807 5806 5806 5806 5805 5804 5804 5803 5802 5801 5800 5799 5797 5796 5794 5793 5791 5789 5787 5785 5783 5780 5777 5775 5772 5769 5767 5764 5761 5757 5754 5751 5748 5745 5742 5738 5735 5732 5728 5725 5721 5718 5714 5711 5707 5703 5700 5696 5692 5688 5685 5681 5677 5673 5670 5667 5664 5662 5659 5656 5654 5652 5650 5648 5647 5646 5645 5645 5645 5645 5644 5645 5646 5647 5648 5649 5650 5651 5653 5655 5656 5658 5661
5808 5807 5807 5807 5806 5806 5805 5805 5804 5803 5802 5801 5800 5798 5797 5796 5794 5792 5790 5788 5786 5784 5781 5779 5776 5773 5771 5768 5765 5762 5759 5755 5752 5749 5746 5743 5739 5736 5732 5729 5725 5721 5717 5714 5710 5706 5702 5698 5695 5691 5687 5683 5679 5675 5671 5667 5663 5660 5657 5654 5652 5649 5647 5645 5642 5641 5639 5638 5637 5637 5637 5637 5637 5637 5638 5640 5642 5643 5644 5645 5647 5649 5650 5652 5655
5808 5807 5807 5807 5807 5806 5805 5804 5803 5803 5802 5801 5800 5798 5797 5795 5793 5791 5789 5787 5784 5782 5780 5778 5775 5772 5769 5766 5763 5760 5757 5754 5751 5747 5744 5740 5737 5733 5730 5726 5722 5718 5713 5709 5705 5701 5698 5694 5690 5686 5682 5678 5673 5669 5665 5661 5657 5653 5650 5647 5644 5642 5639 5637 5635 5633 5632 5630 5630 5629 5629 5629 5630 5631 5632 5634 5636 5637 5638 5639 5641 5643 5645 5647 5650
5808 5808 5808 5807 5807 5806 5805 5804 5803 5803 5802 5801 5799 5798 5796 5794 5792 5790 5788 5786 5783 5781 5779 5776 5773 5770 5767 5764 5761 5758 5755 5752 5749 5745 5742 5738 5734 5731 5727 5722 5718 5714 5709 5705 5701 5697 5693 5689 5685 5681 5677 5672 5667 5662 5658 5655 5651 5647 5643 5640 5637 5634 5632 5630 5628 5626 5625 5623 5623 5623 5622 5623 5624 5625 5627 5628 5630 5631 5633 5634 5636 5638 5640 5642 5645
5809 5808 5808 5807 5807 5806 5805 5804 5804 5803 5802 5800 5799 5797 5795 5793 5792 5790 5787 5785 5782 5780 5778 5775 5772 5769 5766 5762 5759 5757 5753 5750 5746 5743 5739 5736 5732 5728 5723 5719 5714 5710 5705 5701 5697 5693 5689 5685 5681 5676 5672 5666 5661 5656 5652 5648 5644 5640 5636 5633 5630 5627 5625 5623 5621 5620 5618 5617 5616 5616 5617 5617 5618 5619 5621 5622 5624 5625 5627 5629 5631 5633 5635 5638 5640
5809 5809 5808 5807 5807 5806 5805 5804 5804 5802 5801 5800 5798 5796 5795 5793 5791 5789 5786 5784 5782 5779 5777 5774 5771 5767 5764 5761 5758 5755 5751 5748 5744 5741 5737 5733 5729 5724 5720 5715 5711 5706 5702 5697 5693 5689 5684 5681 5677 5672 5667 5661 5655 5651 5647 5642 5637 5633 5629 5627 5624 5621 5619 5617 5615 5613 5611 5610 5610 5610 5610 5611 5611 5612 5614 5615 5617 5618 5621 5623 5625 5628 5630 5633 5636
5809 5809 5808 5808 5807 5806 5805 5804 5803 5802 5800 5799 5798 5796 5795 5792 5790 5787 5785 5783 5781 5778 5776 5772 5769 5766 5763 5760 5757 5753 5750 5746 5742 5739 5734 5730 5726 5721 5717 5712 5707 5703 5698 5694 5690 5685 5681 5676 5672 5667 5662 5656 5649 5644 5640 5636 5631 5627 5623 5620 5618 5615 5613 5610 5608 5606 5604 5603 5603 5603 5603 5603 5604 5605 5607 5608 5610 5612 5615 5617 5620 5622 5625 5628 5631
5810 5809 5808 5807 5807 5806 5805 5804 5803 5802 5800 5799 5798 5796 5794 5791 5789 5787 5785 5783 5780 5777 5774 5771 5768 5765 5761 5758 5755 5751 5748 5744 5740 5737 5732 5728 5723 5718 5714 5709 5705 5700 5695 5691 5686 5682 5677 5672 5667 5663 5657 5651 5644 5638 5634 5629 5624 5621 5618 5614 5611 5609 5606 5604 5601 5599 5597 5596 5596 5595 5596 5596 5597 5598 5600 5601 5603 5606 5609 5611 5614 5617 5620 5623 5626
5810 5809 5808 5807 5806 5806 5805 5804 5803 5802 5801 5799 5797 5795 5793 5791 5789 5787 5785 5782 5779 5776 5773 5770 5766 5763 5760 5757 5753 5750 5746 5742 5739 5735 5730 5725 5721 5716 5711 5707 5702 5697 5692 5688 5683 5679 5674 5668 5662 5657 5652 5646 5639 5633 5628 5623 5619 5616 5612 5609 5605 5602 5599 5597 5594 5593 5591 5590 5589 5589 5589 5589 5590 5591 5593 5595 5597 5599 5602 5605 5609 5612 5615 5618 5622
5810 5809 5808 5807 5806 5806 5805 5804 5803 5802 5800 5799 5797 5795 5793 5791 5789 5787 5784 5782 5778 5775 5772 5768 5765 5762 5759 5755 5752 5748 5744 5741 5737 5732 5728 5723 5718 5713 5709 5704 5699 5695 5690 5685 5680 5675 5669 5664 5657 5652 5646 5641 5634 5628 5623 5618 5614 5610 5606 5602 5599 5596 5592 5590 5588 5587 5585 5584 5583 5582 5582 5582 5583 5584 5586 5588 5590 5592 5595 5599 5603 5606 5609 5613 5617
5810 5809 5808 5807 5807 5806 5806 5805 5803 5802 5800 5798 5796 5795 5793 5791 5788 5786 5784 5780 5777 5774 5771 5767 5764 5761 5758 5754 5750 5747 5743 5739 5735 5730 5726 5721 5716 5711 5706 5702 5697 5692 5688 5683 5678 5672 5665 5660 5654 5648 5641 5636 5629 5623 5618 5613 5608 5605 5601 5596 5594 5591 5586 5584 5582 5580 5579 5577 5576 5575 5574 5574 5575 5576 5578 5580 5583 5586 5589 5593 5597 5601 5605 5609 5613
5810 5809 5808 5808 5807 5807 5806 5805 5803 5802 5800 5798 5796 5795 5793 5790 5788 5785 5783 5779 5776 5773 5770 5766 5763 5760 5756 5753 5749 5745 5741 5737 5733 5729 5724 5719 5714 5709 5704 5700 5695 5690 5686 5680 5675 5669 5663 5656 5649 5644 5638 5631 5624 5618 5612 5608 5603 5600 5597 5593 5591 5587 5581 5579 5577 5574 5572 5570 5568 5567 5567 5567 5568 5569 5571 5574 5576 5579 5583 5588 5592 5596 5601 5605 5609
5810 5809 5808 5808 5808 5807 5806 5805 5803 5801 5800 5798 5796 5794 5792 5790 5787 5785 5782 5778 5775 5772 5769 5765 5762 5759 5755 5751 5748 5744 5740 5736 5731 5727 5722 5717 5712 5707 5702 5698 5693 5688 5683 5677 5672 5666 5660 5653 5645 5639 5633 5627 5621 5614 5609 5604 5599 5595 5592 5590 5587 5583 5578 5574 5572 5570 5567 5565 5564 5563 5562 5562 5563 5564 5566 5568 5571 5575 5579 5584 5588 5593 5597 5601 5605
5810 5809 5809 5808 5808 5807 5806 5804 5803 5801 5799 5798 5796 5794 5792 5790 5787 5784 5781 5778 5774 5771 5768 5764 5761 5757 5754 5750 5746 5742 5738 5734 5730 5725 5721 5716 5711 5706 5701 5696 5691 5686 5681 5675 5669 5664 5657 5651 5643 5636 5629 5623 5618 5612 5607 5602 5598 5592 5588 5586 5583 5580 5575 5572 5569 5566 5564 5563 5562 5561 5560 5559 5559 5561 5562 5564 5568 5571 5576 5580 5584 5589 5593 5597 5602
5810 5809 5809 5808 5808 5807 5806 5804 5803 5801 5799 5798 5796 5794 5792 5790 5787 5784 5781 5777 5774 5770 5767 5763 5760 5756 5753 5749 5745 5741 5737 5733 5728 5724 5719 5714 5709 5704 5699 5694 5690 5684 5679 5673 5668 5662 5655 5648 5641 5634 5627 5620 5615 5610 5605 5600 5596 5591 5586 5583 5580 5577 5574 5570 5567 5565 5563 5562 5561 5559 5558 5557 5558 5559 5560 5563 5566 5569 5573 5576 5581 5585 5590 5595 5600
5810 5809 5809 5808 5808 5807 5806 5804 5803 5801 5799 5798 5796 5794 5792 5789 5787 5783 5780 5776 5773 5769 5766 5762 5759 5755 5751 5748 5744 5740 5735 5731 5727 5722 5718 5713 5708 5703 5698 5693 5688 5682 5677 5672 5666 5659 5653 5646 5639 5631 5625 5619 5613 5609 5604 5599 5595 5590 5586 5582 5578 5575 5571 5569 5566 5564 5563 5562 5560 5558 5557 5557 5558 5559 5560 5562 5565 5568 5571 5574 5578 5583 5588 5593 5598
5810 5810 5809 5808 5808 5807 5805 5804 5802 5801 5799 5798 5796 5794 5792 5789 5786 5782 5779 5775 5772 5768 5765 5762 5758 5754 5750 5747 5743 5738 5734 5730 5725 5721 5716 5711 5706 5701 5697 5692 5686 5681 5676 5670 5663 5657 5650 5643 5636 5630 5624 5618 5612 5608 5603 5599 5594 5590 5586 5582 5578 5574 5571 5568 5567 5565 5563 5562 5560 5559 5558 5558 5559 5560 5561 5563 5566 5568 5571 5574 5578 5582 5587 5592 5597
5810 5810 5809 5808 5807 5806 5805 5804 5802 5801 5799 5797 5795 5793 5791 5788 5785 5781 5778 5775 5771 5768 5764 5761 5757 5753 5750 5746 5741 5737 5733 5729 5724 5720 5715 5710 5705 5700 5695 5690 5685 5680 5675 5668 5662 5655 5648 5641 5635 5629 5624 5618 5612 5607 5603 5599 5595 5591 5587 5583 5579 5575 5571 5569 5567 5566 5564 5563 5562 5560 5560 5561 5562 5563 5564 5565 5567 5570 5572 5575 5578 5583 5587 5592 5596
5810 5810 5809 5808 5807 5806 5805 5804 5802 5800 5799 5797 5795 5793 5790 5787 5784 5781 5778 5775 5771 5767 5764 5760 5757 5753 5749 5745 5740 5736 5732 5728 5723 5719 5714 5709 5704 5700 5694 5689 5684 5679 5673 5667 5661 5654 5646 5640 5634 5628 5623 5617 5612 5608 5603 5599 5596 5592 5588 5584 5580 5576 5572 5570 5568 5567 5566 5566 5564 5563 5563 5564 5564 5565 5566 5567 5569 5571 5573 5576 5580 5584 5588 5592 5596
5810 5810 5809 5808 5807 5806 5805 5803 5802 5800 5798 5796 5794 5792 5790 5787 5784 5781 5778 5774 5770 5767 5763 5760 5756 5752 5748 5744 5740 5735 5731 5727 5722 5718 5713 5708 5704 5699 5693 5689 5684 5678 5672 5666 5660 5653 5646 5640 5633 5628 5623 5618 5613 5609 5604 5600 5596 5593 5590 5586 5582 5578 5574 5571 5570 5569 5568 5568 5567 5566 5566 5566 5566 5568 5569 5569 5571 5573 5575 5578 5581 5585 5588 5592 5596
5810 5810 5808 5807 5806 5805 5804 5803 5801 5800 5798 5796 5794 5792 5789 5787 5784 5781 5777 5774 5770 5766 5762 5759 5755 5751 5747 5743 5739 5735 5730 5726 5721 5717 5713 5708 5703 5698 5693 5689 5684 5678 5672 5666 5659 5652 5646 5640 5633 5628 5623 5618 5614 5610 5605 5601 5598 5595 5591 5588 5584 5580 5577 5574 5572 5571 5571 5570 5570 5569 5569 5569 5569 5570 5571 5572 5574 5575 5578 5581 5584 5587 5590 5594 5597
5810 5809 5808 5807 5806 5805 5804 5802 5801 5799 5797 5795 5793 5791 5789 5786 5784 5780 5777 5773 5769 5766 5762 5758 5754 5750 5746 5742 5738 5734 5730 5725 5721 5716 5712 5708 5703 5698 5693 5689 5683 5678 5672 5666 5660 5653 5646 5640 5633 5628 5623 5619 5615 5611 5607 5603 5599 5596 5593 5590 5587 5583 5580 5578 5576 5575 5574 5573 5573 5572 5572 5572 5572 5573 5574 5574 5576 5578 5580 5583 5586 5589 5592 5596 5599
5810 5809 5808 5807 5805 5804 5803 5802 5800 5799 5797 5795 5793 5791 5788 5786 5783 5780 5777 5773 5769 5765 5761 5757 5753 5750 5746 5742 5738 5734 5729 5725 5720 5716 5712 5707 5703 5698 5694 5689 5683 5678 5673 5667 5660 5653 5647 5640 5634 5628 5624 5620 5616 5612 5608 5604 5601 5598 5595 5592 5589 5585 5583 5582 5580 5579 5578 5576 5575 5575 5575 5575 5575 5576 5576 5577 5578 5580 5582 5585 5588 5590 5593 5598 5601